Flag for Kuwait Weather past 2 weeks in Kuwait City, Kuwait

Now
84 °F

Sunny.


Feels Like: 81 °F
Forecast: 67 / 81 °F
Wind: 9 mph from East

Location: Kuwait International Airport

Current Time: Apr 1, 2015 at 2:44:44 PM

Latest Report: Apr 1, 2015 at 2:00 PM


Visibility: 10 mi

Pressure: 29.65 "Hg

Humidity: 14%

Dew point: 30 °F

Location of Kuwait CityLocation

Historic Weather in Kuwait City — Graph

°F

Kuwait City temperature yesterday

Maximum temperature yesterday: 86 °F (at 2:00 PM)
Minimum temperature yesterday: 72 °F (at 5:00 AM)
Average temperature yesterday: 79 °F

Past Weeks' High & Low Weather Summary

 TemperatureHumidityPressure
High91 °F (Mar 30, 5:00 PM)94% (Mar 18, 11:00 PM)30.18 "Hg (Mar 18, 11:00 PM)
Low46 °F (Mar 24, 6:00 AM)12% (Mar 29, 10:00 AM)29.65 "Hg (Mar 30, 2:00 PM)
Average72 °F53%29.94 "Hg
* Reported Mar 17 2:00 PM — Apr 1 2:00 PM, Kuwait City, Weather by CustomWeather, © 2015

Note: Actual official high and low records may vary slightly from our data, if they occured in-between our weather recording intervals... More about our weather records

Advertising

Kuwait City weather history for previous 24 hours

 ConditionsComfort  
Time TempWeatherWind HumidityBarometerVisibility
2:00 PM
Wed, Apr 1
84 °FSunny.9 mph14%29.65 "Hg10 mi
1:00 PM82 °FSunny.7 mph15%29.68 "Hg10 mi
12:00 PM81 °FSunny.6 mph21%29.71 "Hg10 mi
11:00 AM79 °FPartly sunny.7 mph28%29.74 "HgN/A
10:00 AM77 °FBroken clouds.5 mph34%29.77 "HgN/A
9:00 AM75 °FMore clouds than sun.5 mph39%29.80 "Hg5 mi
8:00 AM73 °FMore clouds than sun.5 mph47%29.77 "Hg5 mi
7:00 AM73 °FOvercast.5 mph47%29.77 "HgN/A
6:00 AM73 °FPartly sunny.3 mph47%29.77 "HgN/A
5:00 AM73 °FPassing clouds.5 mph38%29.80 "HgN/A
4:00 AM73 °FPassing clouds.3 mph41%29.80 "HgN/A
3:00 AM73 °FPassing clouds.No wind38%29.80 "HgN/A
2:00 AM73 °FClear.No wind41%29.80 "Hg10 mi
1:00 AM73 °FClear.3 mph41%29.83 "Hg10 mi
12:00 AM73 °FClear.6 mph44%29.86 "Hg10 mi
11:00 PM
Tue, Mar 31
75 °FClear.3 mph36%29.89 "Hg10 mi
10:00 PM77 °FClear.6 mph30%29.89 "Hg10 mi
9:00 PM79 °FClear.5 mph28%29.89 "Hg10 mi
8:00 PM79 °FClear.8 mph28%29.89 "Hg10 mi
7:00 PM81 °FClear.10 mph24%29.89 "Hg10 mi
6:00 PM81 °FSunny.12 mph24%29.89 "Hg10 mi
5:00 PM84 °FSunny.13 mph19%29.89 "Hg10 mi
4:00 PM86 °FSunny.16 mph17%29.86 "Hg10 mi
3:00 PM86 °FSunny.15 mph17%29.89 "Hg10 mi
2:00 PM86 °FSunny.13 mph17%29.89 "Hg10 mi
Weather by CustomWeather, © 2015

See weather overviewHow to use our weather pages